[[{"header":{"parameterUnit":"m.s-1","parameterCategory":1,"la1":30.2991,"la2":30.254,"lo1":-89.0895,"lo2":-89.0444,"dy":0.0017,"dx":0.0017,"nx":28,"ny":28,"refTime":"2024-06-10T03:00:00:Z","depth":0,"parameterNumber":2,"parameterNumberName":"U-component_of_WINDS"},"data":[0,0,0,0,0,0,0,0,0,0,0,0,0,0,0,0,0,0,0,0,0,0,0,0,0,0,0,0,0,0,0,0,0,0,0,0,0,0,0,0,0,0,0,0,0,0,0,0,0,0,0,0,0,0,0,0,0,0,3.8939,3.894,0,3.9015,3.9015,3.9016,3.8915,3.8912,3.8908,3.8905,3.8983,3.8989,3.8994,0,0,0,0,0,0,0,0,0,0,0,0,0,3.8706,3.8711,3.8939,3.894,3.8941,3.9014,3.9015,3.9016,3.8916,3.8911,3.8907,3.8903,3.8982,3.8988,3.8995,0,0,0,0,0,0,0,0,0,0,0,0,0,3.8797,3.8713,3.8939,3.89,3.8897,3.9014,3.9015,3.9017,3.8917,3.8911,3.8906,3.8901,3.8979,3.8987,3.8996,3.9156,0,0,3.9021,3.9024,0,0,0,0,0,0,0,0,3.8792,3.8806,3.8904,3.8902,3.89,3.895,3.8962,3.9063,3.8918,3.8909,3.8904,3.8898,3.8977,3.8985,3.9011,3.9159,3.9163,3.9021,3.9026,3.903,3.9032,0,0,0,0,0,0,0,3.8786,3.8802,3.8969,3.8906,3.8903,3.8878,3.8884,3.8981,3.8973,3.891,3.8902,3.8913,3.8974,3.9003,3.9012,3.9164,3.9021,3.9029,3.9034,3.9037,3.9442,3.9448,0,0,0,0,0,0,3.8784,3.8797,3.8966,3.8971,3.8831,3.8886,3.8894,3.8939,3.8971,3.8971,3.8917,3.8908,3.8992,3.9003,3.9015,3.92,3.903,3.9038,3.9042,3.9436,3.9443,3.945,0,0,0,0,0,0,3.878,3.88,3.8963,3.8882,3.8901,3.8896,3.8948,3.8944,3.8972,3.8977,3.8975,3.8948,3.8988,3.9003,3.912,3.9202,3.9041,3.9049,3.943,3.9439,3.9447,3.9576,0,0,0,0,0,0,3.8774,3.8799,3.8861,3.8884,3.8906,3.9069,3.8953,3.8949,3.8987,3.8975,3.9006,3.9006,3.8985,3.9108,3.9128,3.921,3.9055,3.9422,3.9434,3.9444,3.9565,3.9588,3.9609,0,0,0,0,0,3.8766,3.8896,3.8864,3.8885,3.8982,3.9074,3.9086,3.9059,3.8994,3.9055,3.9057,3.9005,3.919,3.9121,3.9143,3.9229,3.9417,3.943,3.9443,3.9555,3.9584,3.9608,0,0,0,0,0,0,3.8883,3.8898,3.8864,3.9005,3.9039,3.9056,3.9133,3.9091,3.9144,3.9131,3.9095,3.9103,3.9227,3.924,3.9163,3.9383,3.9293,3.9311,3.937,3.9398,3.9419,3.9413,3.9062,0,0,0,0,0,3.8925,3.8998,3.9007,3.9131,3.915,3.9139,3.9177,3.9153,3.9187,3.92,3.9212,3.9246,3.9311,3.9355,3.9416,3.9566,3.9569,3.9635,3.9657,3.9676,3.9691,3.9767,3.9795,3.9493,3.9493,3.9492,0,0,3.9014,3.9031,3.9079,3.9155,3.9178,3.9253,3.9151,3.9236,3.9291,3.9213,3.9323,3.9333,3.9369,3.9502,3.9561,3.9516,3.9775,3.9692,3.9707,3.9712,3.9783,3.9812,3.9838,3.9502,3.95,3.9499,0,0,3.9212,3.9234,3.9337,3.9362,3.9397,3.9388,3.9413,3.9437,3.9439,3.9549,3.9491,3.9556,3.9671,3.9697,3.9726,3.9931,3.9883,3.9952,4.0066,4.0141,4.0165,4.0186,4.0255,4.0281,3.9968,3.9968,3.9968,0,3.9318,3.9428,3.9396,3.9484,3.9518,3.9449,3.9553,3.9578,3.9633,3.9657,3.9606,3.9745,3.9765,3.9901,3.9951,3.9977,4.0003,3.9948,4.0164,4.0185,4.0204,4.027,4.0297,3.9976,3.9975,3.9974,3.9973,0,3.9554,3.9632,3.9711,3.9763,3.9806,3.9902,3.9883,3.993,3.9901,3.9898,4.0008,4.0029,4.0091,4.0122,4.0096,4.0254,4.0224,4.017,4.0078,4.0241,4.0302,4.0328,3.9987,3.9984,3.9982,3.998,0,0,3.983,3.986,3.989,3.9911,3.9943,4.0002,4.0094,4.0153,4.0192,4.0232,4.0305,4.0402,4.035,4.0383,4.0359,4.0425,4.0581,4.0361,4.0361,4.0399,4.0752,4.0791,4.0822,4.055,4.0555,4.0559,4.0748,0,4.0026,4.0183,4.0155,4.0307,4.0376,4.0311,4.039,4.0418,4.0416,4.0474,4.0472,4.054,4.0468,4.0486,4.0549,4.0549,4.0651,4.0535,4.0617,4.062,4.0608,4.0854,4.0897,4.1074,4.0772,4.0776,4.0779,0,4.0276,4.0322,4.048,4.0498,4.0526,4.0598,4.0647,4.0704,4.0734,4.0727,4.0762,4.0725,4.0814,4.0722,4.0842,4.0764,4.0795,4.08,4.0806,4.0811,4.0708,4.0863,4.1131,4.1156,4.0817,4.0814,4.0812,0,4.0457,4.0559,4.0665,4.0686,4.071,4.0761,4.0774,4.0798,4.0834,4.0878,4.09,4.0955,4.0984,4.1026,4.1004,4.0939,4.1127,4.1034,4.1123,4.1123,4.1164,4.1161,4.1438,4.1189,4.1189,4.1188,4.1188,0,4.0677,4.0776,4.0746,4.0812,4.092,4.0886,4.0994,4.0998,4.102,4.1084,4.1032,4.1093,4.1061,4.1119,4.1103,4.1203,4.1217,4.1213,4.1207,4.1217,4.1217,4.1236,4.1222,4.1195,4.1194,4.1192,4.1191,0,4.0898,4.0882,4.0994,4.1007,4.1012,4.1091,4.1101,4.1161,4.1155,4.1236,4.1254,4.1243,4.1309,4.1291,4.1363,4.1352,4.1477,4.1457,4.1467,4.1461,4.1549,4.154,4.1846,4.1883,4.1613,4.1615,4.1617,0,4.1038,4.1112,4.1132,4.1171,4.1187,4.1251,4.1286,4.1255,4.1294,4.1331,4.1387,4.1447,4.1494,4.1602,4.16,4.1654,4.1633,4.1736,4.1641,4.1647,4.1631,4.1626,4.1631,4.1755,4.1758,4.176,4.1763,0,4.1288,4.1276,4.1329,4.1379,4.1423,4.1461,4.1495,4.1529,4.15,4.1547,4.1612,4.1648,4.172,4.178,4.1829,4.184,4.1796,4.1793,4.1815,4.1825,4.1826,4.1823,4.1516,4.1785,4.1783,4.1781,4.178,4.1779,4.1471,4.1532,4.1554,4.1614,4.1636,4.1667,4.1723,4.1722,4.1776,4.1831,4.181,4.1885,4.1908,4.1969,4.1987,4.2044,4.2004,4.2038,4.2046,4.2055,4.2064,4.1819,4.2053,4.2052,4.2052,4.2051,4.2051,0,4.1715,4.1726,4.1781,4.1828,4.1875,4.1828,4.1862,4.1904,4.197,4.1996,4.2042,4.2115,4.2172,4.2174,4.2227,4.2272,4.2253,4.2287,4.2282,4.2285,4.2098,4.2071,4.2301,4.2301,4.2301,4.2301,4.2301,4.2301,4.1848,4.1947,4.1937,4.2046,4.2055,4.2127,4.215,4.2178,4.2197,4.2282,4.2328,4.2329,4.2344,4.2397,4.2446,4.2445,4.2466,4.2507,4.2498,4.2323,4.2298,4.2275,4.2249,4.2513,4.2513,4.268,4.2681,4.2682]},{"header":{"parameterUnit":"m.s-1","parameterCategory":1,"la1":30.2991,"la2":30.254,"lo1":-89.0895,"lo2":-89.0444,"dy":0.0017,"dx":0.0017,"nx":28,"ny":28,"refTime":"2024-06-10T03:00:00:Z","depth":0,"parameterNumber":3,"parameterNumberName":"V-component_of_WINDS"},"data":[0,0,0,0,0,0,0,0,0,0,0,0,0,0,0,0,0,0,0,0,0,0,0,0,0,0,0,0,0,0,0,0,0,0,0,0,0,0,0,0,0,0,0,0,0,0,0,0,0,0,0,0,0,0,0,0,0,0,2.655,2.6551,0,2.666,2.6661,2.6662,2.666,2.6658,2.6657,2.6655,2.6768,2.6772,2.6776,0,0,0,0,0,0,0,0,0,0,0,0,0,2.6336,2.634,2.655,2.6551,2.6553,2.666,2.6661,2.6663,2.666,2.6658,2.6656,2.6655,2.6766,2.6772,2.6777,0,0,0,0,0,0,0,0,0,0,0,0,0,2.6436,2.6341,2.655,2.6564,2.6567,2.6659,2.6661,2.6663,2.666,2.6658,2.6656,2.6654,2.6765,2.6771,2.6778,2.6863,0,0,2.6798,2.68,0,0,0,0,0,0,0,0,2.643,2.6444,2.6561,2.6563,2.6566,2.6644,2.6627,2.673,2.6661,2.6625,2.6655,2.6653,2.6728,2.6738,2.6763,2.6868,2.6873,2.6798,2.6802,2.6805,2.6807,0,0,0,0,0,0,0,2.6423,2.6439,2.6593,2.6562,2.6566,2.6565,2.6576,2.6647,2.6688,2.6628,2.6628,2.6641,2.6729,2.6757,2.6766,2.6875,2.6798,2.6804,2.6808,2.6811,2.7052,2.7055,0,0,0,0,0,0,2.6413,2.6433,2.659,2.6597,2.6491,2.657,2.6584,2.6621,2.6687,2.6695,2.6643,2.664,2.6747,2.6758,2.677,2.6872,2.6805,2.6811,2.6815,2.705,2.7053,2.7056,0,0,0,0,0,0,2.6409,2.6427,2.6586,2.6515,2.6535,2.6577,2.6619,2.6625,2.6652,2.6698,2.6706,2.6663,2.6746,2.6761,2.6839,2.6876,2.6814,2.682,2.7047,2.7051,2.7054,2.7079,0,0,0,0,0,0,2.6403,2.6426,2.6459,2.6516,2.6539,2.6654,2.6621,2.6628,2.6663,2.6661,2.672,2.6727,2.6745,2.6829,2.6846,2.6884,2.6825,2.7044,2.7049,2.7053,2.7075,2.7083,2.709,0,0,0,0,0,2.6395,2.6463,2.6461,2.648,2.6582,2.6656,2.6669,2.6688,2.6667,2.67,2.6729,2.6725,2.687,2.6838,2.6856,2.6897,2.7042,2.7047,2.7053,2.7072,2.7082,2.709,0,0,0,0,0,0,2.641,2.647,2.6469,2.6557,2.6601,2.6655,2.6698,2.6698,2.675,2.6746,2.6767,2.678,2.6858,2.6886,2.6849,2.6982,2.6953,2.6962,2.6961,2.6971,2.6978,2.6969,2.6831,0,0,0,0,0,2.6423,2.6479,2.6529,2.6601,2.6623,2.6657,2.669,2.6701,2.6747,2.6766,2.6801,2.6847,2.6902,2.6938,2.6992,2.7079,2.7091,2.7116,2.7124,2.713,2.7137,2.7183,2.7194,2.7074,2.7074,2.7074,0,0,2.6452,2.6491,2.6525,2.6605,2.6641,2.6697,2.6673,2.6734,2.6775,2.6776,2.6851,2.6879,2.693,2.7013,2.7051,2.7038,2.7173,2.7137,2.7141,2.7146,2.719,2.7201,2.7211,2.7078,2.7077,2.7076,0,0,2.6532,2.6568,2.6631,2.6667,2.6721,2.6742,2.6757,2.6811,2.6829,2.6906,2.6906,2.6956,2.7051,2.7087,2.7118,2.7209,2.7207,2.7226,2.7265,2.7309,2.7319,2.7327,2.7358,2.7369,2.7234,2.7234,2.7234,0,2.656,2.6645,2.6664,2.6725,2.6759,2.6761,2.6824,2.6858,2.6927,2.695,2.6934,2.7052,2.7088,2.7177,2.7199,2.7225,2.7242,2.7219,2.7316,2.7325,2.7333,2.7362,2.7374,2.7236,2.7236,2.7235,2.7235,0,2.6676,2.6735,2.6779,2.6845,2.6884,2.6946,2.6973,2.7011,2.7017,2.704,2.7117,2.7159,2.722,2.7242,2.725,2.7333,2.7323,2.7311,2.7283,2.7346,2.7374,2.7385,2.7238,2.7238,2.7237,2.7237,0,0,2.6769,2.6843,2.6858,2.6887,2.6946,2.6991,2.7052,2.7111,2.7142,2.7189,2.724,2.7319,2.7308,2.7343,2.7355,2.7394,2.7461,2.7378,2.7379,2.739,2.7552,2.7559,2.7572,2.746,2.7462,2.7464,2.7547,0,2.6854,2.6962,2.698,2.7075,2.7128,2.713,2.7183,2.7224,2.7247,2.7295,2.732,2.7375,2.7357,2.7378,2.7417,2.7445,2.7494,2.7439,2.7506,2.7508,2.7492,2.7587,2.7595,2.7672,2.7559,2.756,2.7562,0,2.6967,2.7016,2.7116,2.7165,2.7188,2.7235,2.7289,2.7336,2.7382,2.7395,2.7433,2.744,2.7502,2.7471,2.7556,2.7518,2.7547,2.7564,2.7568,2.7574,2.7538,2.7594,2.7697,2.7708,2.758,2.7578,2.7577,0,2.7022,2.7113,2.7184,2.7208,2.7268,2.7301,2.7327,2.7371,2.7405,2.7452,2.7474,2.7529,2.7558,2.7599,2.762,2.7596,2.7703,2.7674,2.7714,2.7714,2.7736,2.7734,2.7843,2.7757,2.7757,2.7756,2.7756,0,2.7114,2.7175,2.7209,2.7252,2.7319,2.7339,2.7405,2.743,2.7469,2.7516,2.7522,2.7566,2.7591,2.7639,2.7656,2.7722,2.7736,2.7747,2.7751,2.7746,2.7744,2.7764,2.7759,2.7759,2.7759,2.7758,2.7758,0,2.7187,2.7213,2.7289,2.7339,2.7353,2.74,2.7442,2.7484,2.7505,2.7565,2.7581,2.7615,2.7671,2.7696,2.7766,2.7776,2.7852,2.7852,2.7836,2.7837,2.7875,2.787,2.8,2.8017,2.792,2.7921,2.7922,0,2.7243,2.7289,2.7343,2.7375,2.7402,2.7454,2.7488,2.7509,2.7544,2.7598,2.7633,2.7689,2.7735,2.7825,2.7856,2.7908,2.7909,2.795,2.7917,2.791,2.7907,2.7903,2.7907,2.7956,2.7957,2.7958,2.7959,0,2.7339,2.7349,2.7398,2.7451,2.7491,2.7534,2.7575,2.7601,2.7628,2.7667,2.7724,2.776,2.783,2.7885,2.7939,2.7966,2.7966,2.7969,2.7981,2.7976,2.7964,2.7969,2.7851,2.7966,2.7965,2.7964,2.7964,2.7964,2.7404,2.7444,2.7488,2.7542,2.7575,2.7613,2.7654,2.768,2.7729,2.7787,2.7796,2.7857,2.79,2.7972,2.8001,2.8048,2.8037,2.8055,2.8059,2.8063,2.8064,2.7957,2.8058,2.8058,2.8057,2.8057,2.8057,0,2.7499,2.7526,2.7576,2.7633,2.7675,2.7672,2.7717,2.7752,2.7805,2.7845,2.789,2.7954,2.8007,2.8042,2.8095,2.8126,2.8127,2.8139,2.8136,2.8142,2.8071,2.8055,2.8137,2.8137,2.8137,2.8137,2.8137,2.8137,2.7553,2.762,2.7635,2.7718,2.7745,2.7804,2.783,2.7865,2.7897,2.7968,2.8012,2.8034,2.8072,2.8127,2.8175,2.8184,2.8202,2.8214,2.8222,2.8155,2.8147,2.8139,2.8124,2.8219,2.8219,2.8288,2.8289,2.829]}]]